When you browse on this site, cookies collect data to enhance your experience and personalize the content and advertising you see.
Visit our Privacy Policy to learn more. By continuing to use the site, you agree to this use of cookies and data.
  • In Lithuania
  • List of Countries
  • For 7 days
  • Water Temperature
  • Satellite Maps
  • Weather Map
  • Weather Widgets
  • user-avatar
    Login

    Hourly Weather Staroe

    Today, 20 March, Wednesday

    Time Temperature Precipitation Wind Pressure Humidity
    00:00 +1°C° 0 mm 2 mps 752 mmHg 97%
    01:00 +1°C° 0 mm 2 mps 752 mmHg 97%
    02:00 +1°C° 0 mm 2 mps 752 mmHg 97%
    03:00 +1°C° 0 mm 2 mps 751 mmHg 97%
    04:00 +1°C° 0 mm 2 mps 751 mmHg 96%
    05:00 +1°C° 0 mm 2 mps 751 mmHg 95%
    06:00 +1°C° 0 mm 2 mps 751 mmHg 95%
    07:00 0°C° 0.1 mm 3 mps 751 mmHg 94%
    08:00 0°C° 0.1 mm 3 mps 751 mmHg 93%
    09:00 0°C° 0 mm 3 mps 751 mmHg 93%
    10:00 0°C° 0.1 mm 3 mps 751 mmHg 93%
    11:00 +1°C° 0.1 mm 3 mps 751 mmHg 93%
    12:00 +1°C° 0.1 mm 3 mps 751 mmHg 93%
    13:00 +1°C° 0.1 mm 3 mps 751 mmHg 92%
    14:00 +1°C° 0.1 mm 3 mps 751 mmHg 92%
    15:00 +1°C° 0.1 mm 3 mps 751 mmHg 91%
    16:00 +1°C° 0.1 mm 3 mps 751 mmHg 92%
    17:00 +1°C° 0.1 mm 3 mps 751 mmHg 92%
    18:00 +1°C° 0.1 mm 2 mps 751 mmHg 92%
    19:00 +1°C° 0 mm 2 mps 751 mmHg 93%
    20:00 -1°C° 0 mm 2 mps 751 mmHg 94%
    21:00 -2°C° 0 mm 2 mps 751 mmHg 95%
    22:00 -3°C° 0 mm 2 mps 751 mmHg 96%
    23:00 -3°C° 0 mm 2 mps 751 mmHg 96%

    Tomorrow, 21 March, Thursday

    Time Temperature Precipitation Wind Pressure Humidity
    00:00 -3°C° 0 mm 2 mps 751 mmHg 96%
    01:00 -3°C° 0 mm 2 mps 751 mmHg 96%
    02:00 -3°C° 0 mm 2 mps 751 mmHg 95%
    03:00 -2°C° 0 mm 2 mps 751 mmHg 95%
    04:00 -2°C° 0 mm 2 mps 751 mmHg 95%
    05:00 -2°C° 0 mm 2 mps 751 mmHg 95%
    06:00 -3°C° 0 mm 2 mps 751 mmHg 96%
    07:00 -2°C° 0 mm 2 mps 751 mmHg 93%
    08:00 -2°C° 0 mm 2 mps 751 mmHg 90%
    09:00 -1°C° 0 mm 2 mps 751 mmHg 87%
    10:00 -1°C° 0 mm 2 mps 751 mmHg 84%
    11:00 0°C° 0 mm 3 mps 751 mmHg 81%
    12:00 +1°C° 0 mm 3 mps 750 mmHg 79%
    13:00 +1°C° 0 mm 3 mps 750 mmHg 78%
    14:00 +1°C° 0 mm 3 mps 750 mmHg 77%
    15:00 +2°C° 0 mm 3 mps 750 mmHg 76%
    16:00 +1°C° 0.1 mm 3 mps 750 mmHg 80%
    17:00 +2°C° 0.1 mm 2 mps 750 mmHg 83%
    18:00 +1°C° 0.1 mm 2 mps 750 mmHg 87%
    19:00 +1°C° 0.1 mm 2 mps 750 mmHg 89%
    20:00 -1°C° 0.1 mm 2 mps 750 mmHg 92%
    21:00 -1°C° 0.1 mm 3 mps 750 mmHg 94%
    22:00 -1°C° 0 mm 2 mps 750 mmHg 94%
    23:00 -1°C° 0 mm 2 mps 750 mmHg 94%

    Day after tomorrow, 22 March, Friday

    Time Temperature Precipitation Wind Pressure Humidity
    00:00 -1°C° 0 mm 2 mps 750 mmHg 95%
    01:00 -1°C° 0 mm 2 mps 749 mmHg 95%
    02:00 -2°C° 0 mm 2 mps 749 mmHg 95%
    03:00 -2°C° 0 mm 2 mps 749 mmHg 95%
    04:00 -2°C° 0 mm 2 mps 749 mmHg 95%
    05:00 -4°C° 0 mm 3 mps 748 mmHg 94%
    06:00 -4°C° 0 mm 3 mps 748 mmHg 94%
    07:00 -2°C° 0.1 mm 3 mps 747 mmHg 93%
    08:00 -2°C° 0.1 mm 3 mps 746 mmHg 92%
    09:00 -2°C° 0.1 mm 4 mps 745 mmHg 90%
    10:00 -2°C° 0.7 mm 4 mps 745 mmHg 90%
    11:00 -1°C° 0.7 mm 4 mps 744 mmHg 89%
    12:00 -1°C° 0.7 mm 5 mps 743 mmHg 88%
    13:00 0°C° 0.4 mm 4 mps 743 mmHg 87%
    14:00 0°C° 0.4 mm 4 mps 743 mmHg 85%
    15:00 +1°C° 0.4 mm 4 mps 743 mmHg 83%
    16:00 +1°C° 0.1 mm 3 mps 743 mmHg 83%
    17:00 0°C° 0.1 mm 3 mps 743 mmHg 84%
    18:00 -1°C° 0.1 mm 3 mps 743 mmHg 84%
    19:00 -1°C° 0 mm 2 mps 744 mmHg 87%
    20:00 -2°C° 0 mm 2 mps 744 mmHg 90%
    21:00 -3°C° 0 mm 2 mps 744 mmHg 93%
    22:00 -3°C° 0 mm 2 mps 745 mmHg 93%
    23:00 -3°C° 0 mm 2 mps 745 mmHg 94%

    23 March, Saturday

    Time Temperature Precipitation Wind Pressure Humidity
    00:00 -3°C° 0 mm 2 mps 745 mmHg 94%
    01:00 -3°C° 0 mm 2 mps 746 mmHg 94%
    02:00 -3°C° 0 mm 2 mps 746 mmHg 95%
    03:00 -2°C° 0 mm 2 mps 747 mmHg 96%
    04:00 -2°C° 0 mm 2 mps 747 mmHg 96%
    05:00 -2°C° 0 mm 2 mps 748 mmHg 95%
    06:00 -2°C° 0 mm 2 mps 748 mmHg 95%
    07:00 -1°C° 0 mm 2 mps 748 mmHg 94%
    08:00 -1°C° 0 mm 2 mps 748 mmHg 93%
    09:00 +1°C° 0 mm 2 mps 749 mmHg 91%
    10:00 +2°C° 0 mm 1 mps 748 mmHg 89%
    11:00 +3°C° 0 mm 1 mps 748 mmHg 87%
    12:00 +2°C° 0 mm 0 mps 747 mmHg 85%
    13:00 +3°C° 0 mm 1 mps 747 mmHg 82%
    14:00 +2°C° 0 mm 2 mps 746 mmHg 80%
    15:00 +1°C° 0 mm 3 mps 745 mmHg 78%
    16:00 +1°C° 0 mm 3 mps 744 mmHg 80%
    17:00 0°C° 0 mm 3 mps 743 mmHg 81%
    18:00 -1°C° 0 mm 4 mps 743 mmHg 83%
    19:00 -2°C° 0.5 mm 4 mps 741 mmHg 86%
    20:00 -2°C° 0.5 mm 4 mps 740 mmHg 89%
    21:00 -4°C° 0.5 mm 5 mps 739 mmHg 93%
    22:00 -2°C° 0.7 mm 4 mps 738 mmHg 92%
    23:00 -2°C° 0.7 mm 4 mps 738 mmHg 91%

    24 March, Sunday

    Time Temperature Precipitation Wind Pressure Humidity
    00:00 -1°C° 0.7 mm 4 mps 737 mmHg 91%
    01:00 -2°C° 0.1 mm 4 mps 736 mmHg 88%
    02:00 -2°C° 0.1 mm 4 mps 736 mmHg 86%
    03:00 -2°C° 0.1 mm 4 mps 736 mmHg 84%
    04:00 -3°C° 0 mm 4 mps 736 mmHg 86%
    05:00 -4°C° 0 mm 4 mps 736 mmHg 88%
    06:00 -5°C° 0 mm 3 mps 735 mmHg 90%
    07:00 -4°C° 0.1 mm 4 mps 735 mmHg 87%
    08:00 -3°C° 0.1 mm 4 mps 735 mmHg 83%
    09:00 -2°C° 0.1 mm 5 mps 736 mmHg 80%
    10:00 -1°C° 0.1 mm 5 mps 735 mmHg 78%
    11:00 -1°C° 0.1 mm 5 mps 735 mmHg 75%
    12:00 -1°C° 0.1 mm 4 mps 735 mmHg 73%
    13:00 -1°C° 0.1 mm 4 mps 735 mmHg 75%
    14:00 -1°C° 0.1 mm 4 mps 735 mmHg 78%
    15:00 -2°C° 0.1 mm 4 mps 735 mmHg 80%
    16:00 -1°C° 0.3 mm 3 mps 734 mmHg 84%
    17:00 -1°C° 0.3 mm 2 mps 734 mmHg 88%
    18:00 -1°C° 0.3 mm 2 mps 734 mmHg 91%
    19:00 -1°C° 0.2 mm 2 mps 735 mmHg 92%
    20:00 -2°C° 0.2 mm 3 mps 735 mmHg 92%
    21:00 -2°C° 0.2 mm 3 mps 735 mmHg 92%
    22:00 -3°C° 0.1 mm 4 mps 736 mmHg 90%
    23:00 -3°C° 0.1 mm 4 mps 736 mmHg 87%

    25 March, Monday

    Time Temperature Precipitation Wind Pressure Humidity
    00:00 -4°C° 0.1 mm 5 mps 737 mmHg 85%
    01:00 -4°C° 0.1 mm 5 mps 738 mmHg 85%
    02:00 -4°C° 0.1 mm 5 mps 738 mmHg 84%
    03:00 -4°C° 0.1 mm 5 mps 739 mmHg 84%
    04:00 -4°C° 0 mm 5 mps 739 mmHg 84%
    05:00 -5°C° 0 mm 5 mps 740 mmHg 83%
    06:00 -5°C° 0 mm 5 mps 740 mmHg 83%
    07:00 -6°C° 0 mm 5 mps 740 mmHg 82%
    08:00 -6°C° 0 mm 5 mps 741 mmHg 81%
    09:00 -6°C° 0 mm 5 mps 741 mmHg 80%
    10:00 -4°C° 0 mm 4 mps 741 mmHg 79%
    11:00 -4°C° 0 mm 4 mps 741 mmHg 77%
    12:00 -2°C° 0 mm 3 mps 741 mmHg 76%
    13:00 -2°C° 0 mm 3 mps 741 mmHg 74%
    14:00 -1°C° 0 mm 3 mps 741 mmHg 72%
    15:00 -1°C° 0 mm 3 mps 741 mmHg 71%
    16:00 -1°C° 0 mm 2 mps 741 mmHg 74%
    17:00 0°C° 0 mm 1 mps 741 mmHg 77%
    18:00 -1°C° 0 mm 1 mps 741 mmHg 81%
    19:00 -1°C° 0 mm 1 mps 741 mmHg 83%
    20:00 -2°C° 0 mm 1 mps 741 mmHg 85%
    21:00 -2°C° 0 mm 1 mps 742 mmHg 87%
    22:00 -3°C° 0 mm 1 mps 741 mmHg 88%
    23:00 -3°C° 0 mm 1 mps 741 mmHg 89%
    Show more